Погода в Каске

Россия / Архангельская область     63°28′55″N   39°01′55″E
темп.,
°C
ветер,
м/с
пор.,
м/с
влажн.,
%
обл.,
%
осадки,
мм/ч
давл.,
гПа
погр.,
м
5 августа, чт
чт500:00+10з4107486 0.0 10111130
03:00+11з41070100 0.0 10121264
06:00+11юз387299 0.0 1014413
09:00+16з595168 0.0 10151450
12:00+18сз474487 0.0 10152079
15:00+18сз344599 0.0 10171455
18:00+17сз245267 0.0 1018647
21:00+11сз22653 0.0 101823
6 августа, пт
пт600:00+8св12890 0.0 101932
03:00+7всв22967 0.0 102044
06:00+9всв24842 0.0 1021144
09:00+15всв23572 0.0 1021737
12:00+19всв33433 0.0 10201744
15:00+20всв333770 0.0 10192254
18:00+19вюв234692 0.0 1020877
21:00+15всв265995 0.0 1020132
7 августа, сб
сб700:00+10в29784 0.0 1021156
03:00+9всв26814 0.0 1022111
06:00+11всв29722 0.0 1023255
09:00+17в47460 0.0 10231072
12:00+20в46370 0.0 10221828
15:00+21в463443 0.0 10211995
18:00+20в46422 0.0 10201855
21:00+14всв3116499 0.0 1020310
8 августа, вс
вс800:00+13в4135898 0.0 1020436
03:00+12всв41362100 0.0 1020374
06:00+12в41264100 0.0 1019462
09:00+16вюв5951100 0.0 1019829
12:00+18вюв61046100 0.0 10181408
15:00+16вюв61158100 0.0 10191144
18:00+14вюв51268100 0.0 1019913
21:00+13в41288100 0.4 1018762
9 августа, пн
пн900:00+12в41294100 0.4 1018618
03:00+11в31095100 0.4 1017602
06:00+11всв3795100 0.0 1018554
09:00+12всв3894100 0.0 1018501
12:00+13всв3686100 0.0 1019652
15:00+14в3481100 0.1 1020755
18:00+13всв3483100 0.0 1020578
21:00+12в2490100 0.0 1020325